Regional Weather Roundup
Issued by NWS

Home | Current Version | Previous Version | Text Only | Print | Product List | Glossary Off
Versions: 1 2 3 4 5 6 7 8 9 10 11 12 13 14 15 16 17 18 19 20 21 22 23 24 25 26 27 28 29 30 31 32 33 34 35 36 37 38 39 40 41 42 43 44 45 46 47 48 49 50

725
ASUS45 KBOU 040307
RWRCO

WEATHER ROUNDUP FOR COLORADO
NATIONAL WEATHER SERVICE DENVER/BOULDER CO
800 PM MST SAT DEC 03 2016

NOTE: "FAIR" INDICATES FEW OR NO CLOUDS BELOW 12000 FEET WITH NO
SIGNIFICANT WEATHER AND/OR OBSTRUCTIONS TO VISIBILITY.

COZ001>005-013-030-031-040400-
...NORTHWEST COLORADO...

CITY           SKY/WX    TMP DP  RH WIND       PRES   REMARKS
CRAIG          CLOUDY    24  16  71 CALM      30.16S
HAYDEN         CLOUDY    21  12  68 S6        30.16R WCI  14
MEEKER         FAIR      13  10  88 CALM      30.16R
MOUNT WERNER   NOT AVBL
STEAMBOAT SPGS CLOUDY    19  14  82 CALM      30.15R
WALDEN           N/A     18   9  68 S8        30.09R WCI   7
$$

COZ006>008-011-040400-
...WEST CENTRAL VALLEYS...

CITY           SKY/WX    TMP DP  RH WIND       PRES   REMARKS
GRAND JUNCTION FAIR      23  17  78 CALM      30.18R
MONTROSE       FAIR      23  17  78 SE6       30.22R WCI  16
EAGLE          CLOUDY    23  12  62 E3        30.19R
RIFLE          FAIR      22  17  81 E6        30.21R WCI  14
DELTA          FAIR      29  19  65 CALM      30.20R
NUCLA          FAIR      23  12  63 E6        30.21R WCI  16
$$

COZ017>023-064>068-040400-
...SOUTHWEST COLORADO...

CITY           SKY/WX    TMP DP  RH WIND       PRES   REMARKS
DURANGO        FAIR      25  22  88 E5        30.04S WCI  19
CORTEZ         FAIR      28  11  48 N9        30.12R WCI  19
PAGOSA SPRINGS FAIR      22  21  96 CALM      30.05S
TELLURIDE      FAIR      15  10  81 CALM      30.14R
WOLF CREEK PAS FAIR      10  10 100 CALM      30.07F
$$

COZ009-010-012-014-032>034-037-058>063-040400-
...CENTRAL COLORADO...

CITY           SKY/WX    TMP DP  RH WIND       PRES   REMARKS
ASPEN          CLOUDY    21  11  65 NW5       30.13R WCI  15
BUENA VISTA    FAIR      22   7  51 NW13G23   30.06R WCI  10
COPPER MTN     CLOUDY    10   3  72 MISG      29.99S
BERTHOUD PASS  CLOUDY     1  -9  60 NW35G45   29.90F WCI -25
COTTONWOOD PAS FAIR      23   1  39 W17G30    30.02S WCI   9
GUNNISON       FAIR      16   7  67 S7        30.13R WCI   6
KREMMLING      CLOUDY    27  18  69 CALM      30.14R
LEADVILLE      CLOUDY     7   2  80 NE3       30.04R HAZE
MONARCH PASS     N/A      9   5  85 W16G22    30.11R WCI  -9
SALIDA         FAIR      25   9  50 W6        30.13R WCI  18
SUNLIGHT       FAIR       9   5  85 W7        30.13R WCI  -3
WILKERSON PASS FAIR      10   1  67 N15G24    30.01R WCI  -6
$$

COZ069>075-040400-
...SAN LUIS VALLEY/SANGRE DE CRISTO MOUNTAINS...

CITY           SKY/WX    TMP DP  RH WIND       PRES   REMARKS
ALAMOSA        FAIR      10   8  92 SE8       30.05R WCI  -2
LA VETA PASS   FAIR      16  12  86 E14G22    30.00R WCI   1
SAGUACHE       FAIR      21   9  58 NE8       30.08R WCI  12
$$

COZ035-036-038>040-040400-
...NORTHERN COLORADO FRONT RANGE...

CITY           SKY/WX    TMP DP  RH WIND       PRES   REMARKS
DENVER INTL AP FAIR      28  15  58 CALM      30.02S
DMNS CITY PARK   N/A     30  11  45 SW5       30.04S WCI  26
AURORA         PTCLDY    27  15  60 SW3       30.03R
FRONT RANGE AP PTCLDY    27  18  69 W3        30.03S
ERIE MUNI ARPT FAIR      23  10  59 CALM      30.03S
BOULDER MUN AP FAIR      34   9  35 CALM      30.03S
CENTENNIAL     FAIR      28  13  53 CALM      30.03R
BROOMFIELD     PTCLDY    32   9  37 NW6       30.03R WCI  26
FORT COLLINS   FAIR      30  12  47 CALM      30.03S
LONGMONT       FAIR      25  10  51 E5        30.05F WCI  19
$$

COZ041-046-047-076>085-087-088-040400-
...PIKES PEAK/PALMER DIVIDE AND SOUTHERN FOOTHILLS...

CITY           SKY/WX    TMP DP  RH WIND       PRES   REMARKS
COLO. SPRINGS  FAIR      27   7  42 NE5       30.03R WCI  22
A. F. ACADEMY  FAIR      21  10  61 N7        30.01R WCI  12
SCHRIEVER AFB  NOT AVBL
ELLICOTT       FAIR     N/A N/A N/A NE10      30.01R
FALCON         FAIR      28   7  40 N8        30.02R WCI  20
FORT CARSON    FAIR      31  10  41 W9        30.01R WCI  23
LIMON          FAIR      17  13  84 NW5       30.02R WCI  10
MONUMENT HILL  FAIR      25   9  50 N5        30.03S WCI  19
TRINIDAD       FAIR      24  14  65 W8        30.01R WCI  15
$$

COZ042>045-048>051-090-091-040400-
...NORTHEAST COLORADO...

CITY           SKY/WX    TMP DP  RH WIND       PRES   REMARKS
GREELEY ARPT   FAIR      25  11  55 NE6       30.05R WCI  18
AKRON          MOCLDY    28  13  53 W9        30.01S WCI  19
BURLINGTON     FAIR      26  20  77 W10       30.02R WCI  16
WRAY           NOT AVBL
STERLING       FAIR      32  14  47 NW12      30.02R WCI  23
HOLYOKE        FAIR      34  14  44 NW8       30.01S WCI  27
FORT MORGAN    FAIR      31  12  45 NW14      30.03F WCI  20
$$

COZ086-089-092>099-040400-
...SOUTHEAST COLORADO...

CITY           SKY/WX    TMP DP  RH WIND       PRES   REMARKS
PUEBLO         FAIR      31  19  61 N10       30.02R WCI  22
LA JUNTA       FAIR      25  18  74 NW9       30.02R WCI  15
LAMAR          MIX PCPN  25  21  85 CALM      30.00R
SPRINGFIELD      N/A     20  19  96 N5        29.99R WCI  13
$$




USA.gov is the U.S. government's official web portal to all federal, state and local government web resources and services.